Regional Weather Roundup
Issued by NWS State College, PA

Home | Current Version | Previous Version | Graphics & Text | Print | Product List | Glossary On
Versions: 1 2 3 4 5 6 7 8 9 10 11 12 13 14 15 16 17 18 19 20 21 22 23 24 25 26 27 28 29 30 31 32 33 34 35 36 37 38 39 40 41 42 43 44 45 46 47 48 49 50
324
ASUS41 KCTP 210810
RWRCTP

REGIONAL WEATHER ROUNDUP
NATIONAL WEATHER SERVICE STATE COLLEGE PA
300 AM EST SAT JAN 21 2017

Note: "fair" indicates few or no clouds below 12,000 feet with no
significant weather and/or obstructions to visibility.

* = STATION THAT DOES NOT REPORT PRECIPITATION /E.G. RAIN...SNOW...ETC/
    THUNDER OR FOG.

PAZ002>004-007>009-013>016-020>023-029>032-210900-
WESTERN PENNSYLVANIA

CITY           SKY/WX    TMP DP  RH WIND       PRES   REMARKS
ERIE           FOG       45  44  97 CALM      29.81S VSB 1/4
MEADVILLE      FOG       47  45  93 VRB3      29.80S VSB 1/4
FRANKLIN*        N/A     45  45 100 S5        29.82F
NEW CASTLE     FOG       37  37 100 CALM      29.83R VSB 1/2
BEAVER COUNTY  NOT AVBL
BUTLER*          N/A     41  39  93 CALM      29.85S VSB 1/4
PITTSBURGH INT FOG       43  43 100 CALM      29.82R VSB 1
PITTSBURGH     CLEAR     49  46  90 S8        29.83R
INDIANA*       FOG       41  41 100 E3        29.86F VSB 0
LATROBE        FOG       41  41 100 MISG      29.85S VSB<1/4
WASHINGTON CO* CLOUDY    39  37  93 CALM      29.83R VSB 1/4
$$

PAZ004>006-010>012-017>019-024>028-033>037-041-042-045-046-049>053-210900-
CENTRAL PENNSYLVANIA

CITY           SKY/WX    TMP DP  RH WIND       PRES   REMARKS
BRADFORD       CLOUDY    47  47 100 W5        29.82R FOG
DUBOIS         FOG       45  43  93 CALM      29.83R VSB 1/4
CLEARFIELD     FOG       38  38 100 CALM      29.86R VSB 1/4
JOHNSTOWN      PTCLDY    48  47  96 S6        29.84S
ALTOONA        FOG       36  36 100 CALM      29.87R VSB 3/4
STATE COLLEGE  FOG       39  39 100 CALM      29.88R VSB 1/4
WILLIAMSPORT   FOG       39  38  96 CALM      29.90R VSB 1/4
SELINSGROVE    FOG       39  39 100 CALM      29.91R VSB 1/4
FT INDIANTOWN  FOG       39  39 100 CALM      29.92R VSB 1/2
CAPITAL CITY   FOG       40  39  97 CALM      29.92R VSB 1/2
HARRISBURG     FOG       39  39 100 CALM      29.92R VSB 1/4
YORK           FOG       42  42 100 CALM      29.91R VSB 1/4
$$

PAZ038>040-043-044-047-048-054-055-060>062-067>071-210900-
EASTERN PENNSYLVANIA

CITY           SKY/WX    TMP DP  RH WIND       PRES   REMARKS
SCRANTON       FOG       38  38 100 CALM      29.88S VSB 3/4
MOUNT POCONO   CLOUDY    35  34  96 W9        29.85S FOG
ALLENTOWN      FOG       40  37  89 NW5       29.93R VSB 1/2
QUAKERTOWN*    CLOUDY    39  39 100 CALM      29.92S VSB 1/4
READING        FOG       39  39 100 CALM      29.91F VSB 1/2
LANCASTER      FOG       41  41 100 CALM      29.91S VSB 1/4
COATESVILLE    FOG       41  41 100 CALM      29.92F VSB<1/4
POTTSTOWN      FOG       40  40 100 CALM      29.93S VSB 1/2
BLUE BELL      CLOUDY    39  39 100 CALM      29.91F VSB 1
DOYLESTOWN     FOG       41  41 100 CALM      29.91S VSB 1
WILLOW GROVE   NOT AVBL
NORTH PHILA    CLOUDY    42  41  96 CALM      29.94S FOG
PHILADELPHIA   CLOUDY    42  41  96 CALM      29.93F FOG
$$




USA.gov is the U.S. government's official web portal to all federal, state and local government web resources and services.